Weather History for Andover, NJ

Change the Weather History Date:

Saturday, May 11, 2013

  Actual Average (KFWN) Record (KFWN)
Temperature  
Mean Temperature 64 °F -  
Max Temperature 71 °F 68 °F 90 °F (1979)
Min Temperature 59 °F 42 °F 25 °F (1966)
Growing Degree Days 14 (Base 50)    
Moisture  
Dew Point 60 °F    
Average Humidity 87    
Maximum Humidity 97    
Minimum Humidity 73    
Precipitation  
Precipitation 0.40 in - - ()
Sea Level Pressure  
Sea Level Pressure 29.76 in    
Wind  
Wind Speed 2 mph (SW)    
Max Wind Speed 7 mph    
Max Gust Speed -    
Averages and records for this station are not official NWS values.
T = Trace of Precipitation, MM = Missing Value Source: NWS Daily Summary

Daily Weather History Graph

Daily Weather History Graph

Search for Another Location

Airport:

Trip Planner

Search our weather history database for the weather conditions in past years. The results will help you decide how hot, cold, wet, or windy it might be!

Date:

Astronomy

May. 11, 2013 Rise Set
Actual Time 5:44 AM EDT 8:06 PM EDT
Civil Twilight 5:14 AM EDT 8:37 PM EDT
Nautical Twilight 4:35 AM EDT 9:15 PM EDT
Astronomical Twilight 3:53 AM EDT 9:58 PM EDT
Moon 6:50 AM EDT (5/11) 9:44 PM EDT (5/11)
Length of Visible Light 15h 23m
Length of Day
14h 21m
Waxing Crescent, 3% of the Moon is Illuminated
May 11
Waxing Crescent
May 18
First Quarter
May 25
Full
May 31
Last Quarter
Jun 8
New

Hourly Weather History & Observations

Time (EDT) Temp. Dew Point Humidity Pressure Visibility Wind Dir Wind Speed Gust Speed Precip Events Conditions
12:54 AM 62.1 °F 60.1 °F 93% 29.90 in - Calm Calm - 0.10 in   Unknown
1:54 AM 62.1 °F 60.1 °F 93% 29.86 in - Calm Calm - 0.07 in   Unknown
2:54 AM 61.0 °F 60.1 °F 97% 29.83 in - Calm Calm - 0.06 in   Unknown
3:54 AM 62.1 °F 59.0 °F 90% 29.81 in - Calm Calm - 0.01 in   Unknown
4:54 AM 61.0 °F 59.0 °F 93% 29.81 in - Calm Calm - 0.02 in   Unknown
5:54 AM 62.1 °F 59.0 °F 90% 29.79 in - Calm Calm - N/A   Unknown
6:54 AM 63.0 °F 59.0 °F 87% 29.79 in - SSW 6.9 mph - N/A   Unknown
7:54 AM 64.0 °F 60.1 °F 87% 29.80 in - Variable 4.6 mph - N/A   Unknown
8:54 AM 64.9 °F 60.1 °F 84% 29.78 in - Variable 5.8 mph - N/A   Unknown
9:54 AM 66.0 °F 60.1 °F 81% 29.78 in - SSW 5.8 mph - N/A   Unknown
10:54 AM 66.9 °F 60.1 °F 79% 29.77 in - SSW 5.8 mph - N/A   Unknown
11:54 AM 68.0 °F 60.1 °F 76% 29.77 in - SSW 6.9 mph - N/A   Unknown
12:54 PM 68.0 °F 61.0 °F 78% 29.75 in - Variable 3.5 mph - N/A   Unknown
1:54 PM 69.1 °F 60.1 °F 73% 29.72 in - Calm Calm - N/A   Unknown
2:54 PM 64.0 °F 62.1 °F 93% 29.73 in - Calm Calm - 0.08 in   Unknown
3:54 PM 68.0 °F 63.0 °F 84% 29.71 in - Variable 4.6 mph - 0.06 in   Unknown
4:54 PM 68.0 °F 61.0 °F 78% 29.71 in - Variable 3.5 mph - N/A   Unknown
5:54 PM 68.0 °F 59.0 °F 73% 29.71 in - SW 5.8 mph - N/A   Unknown
6:54 PM 66.9 °F 61.0 °F 81% 29.71 in - Calm Calm - N/A   Unknown
7:54 PM 64.9 °F 61.0 °F 87% 29.71 in - SW 4.6 mph - N/A   Unknown
8:54 PM 63.0 °F 61.0 °F 93% 29.72 in - Calm Calm - N/A   Unknown
9:54 PM 61.0 °F 60.1 °F 97% 29.73 in - Calm Calm - N/A   Unknown
10:54 PM 60.1 °F 59.0 °F 96% 29.72 in - Calm Calm - N/A   Unknown
11:54 PM 59.0 °F 57.9 °F 96% 29.72 in - Calm Calm - N/A   Unknown